Location: Avon
(37.7514°N, 90.2235°W)
Time: 18:21:23
(UTC+00:00)

Explorer 11/Cluster Stage 4 - Pass Details

Date: 13 October 2025
Orbit: 463 x 1182 km, 28.8° (Epoch: 13 November)

Event Time Altitude Azimuth Distance (km) Brightness Sun altitude
Exits shadow 08:48:37 12° 143° (SE) 2,824 9.5 -39.4°
Drops below altitude 10° 08:49:18 10° 140° (SE) 3,014 9.7 -39.3°
Sets 08:52:40 0° 129° (SE) 4,026 10.5 -38.7°
